Tracking 22993 objects as of 10-May-2021
HD Live streaming from Space Station
objects crossing your sky now

COSMOS 795

Track COSMOS 795 now!
10-day predictions
COSMOS 795 is classified as:


NORAD ID: 8611
Int'l Code: 1976-008E
Perigee: 1,473.4 km
Apogee: 1,505.4 km
Inclination: 74.1 °
Period: 115.6 minutes
Semi major axis: 7860 km
RCS: 0.6779 m2 (medium)
Launch date: January 28, 1976
Source: Commonwealth of Independent States (former USSR) (CIS)
Launch site: PLESETSK MISSILE AND SPACE COMPLEX (PKMTR)
aabbcc
Your satellite tracking list
Your tracking list is empty




NASA's NSSDC Master Catalog

Two Line Element Set (TLE):
1 08611U 76008E   21130.43421465 -.00000007  00000-0  59879-4 0  9993
2 08611  74.0519 128.4070 0020367 309.6063  50.3187 12.45758856 59190
Source of the keplerian elements: AFSPC